| time (UTC) | temp F | wind direction | speed MPH | gust MPH | rain 1hr in | rain 24hr in | rain mn in | humidity % | barometer mb |
| 20260903060346 | 65 | 30 | 2.0 | 2.0 | 0.00 | 0.00 | 0.00 | 99 | 1023.8 |
| 20260903055844 | 65 | 30 | 2.0 | 2.0 | 0.00 | 0.00 | 0.00 | 99 | 1023.8 |
| 20260903055343 | 64 | 144 | 0.0 | 0.0 | 0.00 | 0.00 | 0.00 | 99 | 1023.9 |
| 20260903054838 | 64 | 144 | 0.0 | 0.0 | 0.00 | 0.00 | 0.00 | 99 | 1023.9 |
| 20260903054338 | 64 | 247 | 0.0 | 1.0 | 0.00 | 0.00 | 0.00 | 99 | 1023.7 |
| 20260903053834 | 64 | 247 | 0.0 | 1.0 | 0.00 | 0.00 | 0.00 | 99 | 1023.7 |
| 20260903053329 | 65 | 120 | 3.0 | 3.0 | 0.00 | 0.00 | 0.00 | 99 | 1023.9 |
| 20260903052825 | 65 | 120 | 3.0 | 3.0 | 0.00 | 0.00 | 0.00 | 99 | 1023.9 |
| 20260903052320 | 65 | 299 | 7.0 | 8.0 | 0.00 | 0.00 | 0.00 | 99 | 1024.1 |
| 20260903051816 | 65 | 299 | 7.0 | 8.0 | 0.00 | 0.00 | 0.00 | 99 | 1024.1 |
| 20260903051311 | 65 | 96 | 3.0 | 3.0 | 0.00 | 0.00 | 0.00 | 99 | 1024.5 |
| 20260903050807 | 65 | 96 | 3.0 | 3.0 | 0.00 | 0.00 | 0.00 | 99 | 1024.5 |
| 20260903050306 | 65 | 92 | 0.0 | 1.0 | 0.00 | 0.00 | 0.00 | 99 | 1024.5 |
| 20260903045800 | 65 | 92 | 0.0 | 1.0 | 0.00 | 0.00 | 0.00 | 99 | 1024.5 |
| 20260903045256 | 64 | 83 | 3.0 | 3.0 | 0.00 | 0.00 | 0.00 | 99 | 1024.3 |
| 20260903044753 | 64 | 83 | 3.0 | 3.0 | 0.00 | 0.00 | 0.00 | 99 | 1024.3 |
| 20260903044247 | 65 | 100 | 3.0 | 3.0 | 0.00 | 0.00 | 0.00 | 99 | 1024.2 |
| 20260903043744 | 65 | 100 | 3.0 | 3.0 | 0.00 | 0.00 | 0.00 | 99 | 1024.2 |
| 20260903043244 | 66 | 147 | 5.0 | 6.0 | 0.00 | 0.00 | 0.00 | 99 | 1023.9 |
| 20260903042743 | 66 | 147 | 5.0 | 6.0 | 0.00 | 0.00 | 0.00 | 99 | 1023.9 |
| 20260903042239 | 66 | 157 | 8.0 | 9.0 | 0.00 | 0.00 | 0.00 | 99 | 1024.1 |
| 20260903041735 | 66 | 157 | 8.0 | 9.0 | 0.00 | 0.00 | 0.00 | 99 | 1024.1 |
| 20260903041231 | 67 | 95 | 1.0 | 2.0 | 0.00 | 0.00 | 0.00 | 99 | 1023.9 |
| 20260903040730 | 67 | 95 | 1.0 | 2.0 | 0.00 | 0.00 | 0.00 | 99 | 1023.9 |
| 20260903040225 | 67 | 80 | 3.0 | 3.0 | 0.00 | 0.00 | 0.00 | 99 | 1023.9 |
| 20260903035716 | 67 | 80 | 3.0 | 3.0 | 0.00 | 0.00 | 0.00 | 99 | 1023.9 |
| 20260903035212 | 66 | 93 | 2.0 | 2.0 | 0.00 | 0.00 | 0.00 | 99 | 1023.9 |
| 20260903034711 | 66 | 93 | 2.0 | 2.0 | 0.00 | 0.00 | 0.00 | 99 | 1023.9 |
| 20260903034206 | 65 | 206 | 1.0 | 1.0 | 0.00 | 0.00 | 0.00 | 99 | 1024.1 |
| 20260903033702 | 65 | 206 | 1.0 | 1.0 | 0.00 | 0.00 | 0.00 | 99 | 1024.1 |
| 20260903033156 | 67 | 107 | 1.0 | 2.0 | 0.00 | 0.00 | 0.00 | 99 | 1023.8 |
| 20260903032651 | 67 | 107 | 1.0 | 2.0 | 0.00 | 0.00 | 0.00 | 99 | 1023.8 |
| 20260903032146 | 66 | 67 | 5.0 | 7.0 | 0.00 | 0.00 | 0.00 | 99 | 1024.1 |
| 20260903031641 | 66 | 67 | 5.0 | 7.0 | 0.00 | 0.00 | 0.00 | 99 | 1024.1 |
| 20260903031136 | 65 | 26 | 7.0 | 8.0 | 0.00 | 0.00 | 0.00 | 99 | 1023.8 |
| 20260903030632 | 65 | 26 | 7.0 | 8.0 | 0.00 | 0.00 | 0.00 | 99 | 1023.8 |
| 20260903030127 | 65 | 82 | 2.0 | 2.0 | 0.00 | 0.00 | 0.00 | 99 | 1023.9 |
| 20260903025628 | 65 | 82 | 2.0 | 2.0 | 0.00 | 0.00 | 0.00 | 99 | 1023.9 |
| 20260903025123 | 65 | 168 | 1.0 | 1.0 | 0.00 | 0.00 | 0.00 | 99 | 1024.3 |
| 20260903024618 | 65 | 168 | 1.0 | 1.0 | 0.00 | 0.00 | 0.00 | 99 | 1024.3 |
| 20260903024113 | 67 | 130 | 1.0 | 1.0 | 0.00 | 0.00 | 0.00 | 99 | 1024.3 |
| 20260903023609 | 67 | 130 | 1.0 | 1.0 | 0.00 | 0.00 | 0.00 | 99 | 1024.3 |
| 20260903023108 | 66 | 149 | 1.0 | 1.0 | 0.00 | 0.00 | 0.00 | 99 | 1024.1 |
| 20260903022603 | 66 | 149 | 1.0 | 1.0 | 0.00 | 0.00 | 0.00 | 99 | 1024.1 |
| 20260903022102 | 66 | 356 | 2.0 | 2.0 | 0.00 | 0.00 | 0.00 | 99 | 1023.9 |
| 20260903021556 | 66 | 356 | 2.0 | 2.0 | 0.00 | 0.00 | 0.00 | 99 | 1023.9 |
| 20260903021051 | 67 | 39 | 4.0 | 4.0 | 0.00 | 0.00 | 0.00 | 99 | 1023.6 |
| 20260903020547 | 67 | 39 | 4.0 | 4.0 | 0.00 | 0.00 | 0.00 | 99 | 1023.6 |
| 20260903020046 | 65 | 345 | 2.0 | 2.0 | 0.00 | 0.00 | 0.00 | 99 | 1023.9 |
| 20260903015542 | 65 | 345 | 2.0 | 2.0 | 0.00 | 0.00 | 0.00 | 99 | 1023.9 |
| 20260903015037 | 67 | 8 | 3.0 | 3.0 | 0.00 | 0.00 | 0.00 | 99 | 1023.7 |
| 20260903014536 | 67 | 8 | 3.0 | 3.0 | 0.00 | 0.00 | 0.00 | 99 | 1023.7 |
| 20260903014032 | 66 | 146 | 0.0 | 0.0 | 0.00 | 0.00 | 0.00 | 99 | 1023.7 |
| 20260903013531 | 66 | 146 | 0.0 | 0.0 | 0.00 | 0.00 | 0.00 | 99 | 1023.7 |
| 20260903013026 | 68 | 114 | 0.0 | 0.0 | 0.00 | 0.00 | 0.00 | 99 | 1023.6 |
| 20260903012525 | 68 | 114 | 0.0 | 0.0 | 0.00 | 0.00 | 0.00 | 99 | 1023.6 |
| 20260903012024 | 69 | 113 | 2.0 | 3.0 | 0.00 | 0.00 | 0.00 | 99 | 1023.6 |
| 20260903011519 | 69 | 113 | 2.0 | 3.0 | 0.00 | 0.00 | 0.00 | 99 | 1023.6 |
| 20260903011014 | 69 | 87 | 4.0 | 4.0 | 0.00 | 0.00 | 0.00 | 99 | 1023.6 |
| 20260903010509 | 69 | 87 | 4.0 | 4.0 | 0.00 | 0.00 | 0.00 | 99 | 1023.6 |
| 20260903010008 | 68 | 50 | 4.0 | 6.0 | 0.00 | 0.00 | 0.00 | 99 | 1023.6 |
| 20260903005502 | 68 | 50 | 4.0 | 6.0 | 0.00 | 0.00 | 0.00 | 99 | 1023.6 |
| 20260903004958 | 69 | 268 | 4.0 | 4.0 | 0.00 | 0.00 | 0.00 | 99 | 1023.7 |
| 20260903004452 | 69 | 268 | 4.0 | 4.0 | 0.00 | 0.00 | 0.00 | 99 | 1023.7 |
| 20260903003948 | 69 | 54 | 10.0 | 13.0 | 0.00 | 0.00 | 0.00 | 99 | 1023.8 |
| 20260903003448 | 69 | 54 | 10.0 | 13.0 | 0.00 | 0.00 | 0.00 | 99 | 1023.8 |
| 20260903002938 | 68 | 100 | 4.0 | 6.0 | 0.00 | 0.00 | 0.00 | 99 | 1023.9 |
| 20260903002433 | 68 | 100 | 4.0 | 6.0 | 0.00 | 0.00 | 0.00 | 99 | 1023.9 |
| 20260903001932 | 68 | 66 | 8.0 | 10.0 | 0.00 | 0.00 | 0.00 | 99 | 1023.7 |
| 20260903001432 | 68 | 66 | 8.0 | 10.0 | 0.00 | 0.00 | 0.00 | 99 | 1023.7 |
| 20260903000931 | 68 | 358 | 6.0 | 8.0 | 0.00 | 0.00 | 0.00 | 99 | 1023.6 |
| 20260903000427 | 68 | 358 | 6.0 | 8.0 | 0.00 | 0.00 | 0.00 | 99 | 1023.6 |
| 20260902235925 | 66 | 61 | 17.0 | 19.0 | 0.00 | 0.00 | 0.00 | 99 | 1024.2 |
| 20260902235421 | 66 | 81 | 11.0 | 15.0 | 0.00 | 0.00 | 0.00 | 99 | 1024.6 |
| 20260902234920 | 66 | 81 | 11.0 | 15.0 | 0.00 | 0.00 | 0.00 | 99 | 1024.6 |
| 20260902234415 | 66 | 62 | 8.0 | 11.0 | 0.00 | 0.00 | 0.00 | 99 | 1024.8 |
| 20260902233914 | 66 | 62 | 8.0 | 11.0 | 0.00 | 0.00 | 0.00 | 99 | 1024.8 |
| 20260902233408 | 66 | 40 | 8.0 | 10.0 | 0.00 | 0.00 | 0.00 | 99 | 1025.0 |
| 20260902232907 | 66 | 40 | 8.0 | 10.0 | 0.00 | 0.00 | 0.00 | 99 | 1025.0 |
| 20260902232402 | 66 | 77 | 18.0 | 27.0 | 0.00 | 0.00 | 0.00 | 99 | 1025.1 |
| 20260902231856 | 66 | 77 | 18.0 | 27.0 | 0.00 | 0.00 | 0.00 | 99 | 1025.1 |
| 20260902231351 | 66 | 160 | 17.0 | 19.0 | 0.00 | 0.00 | 0.00 | 99 | 1024.8 |
| 20260902230846 | 66 | 160 | 17.0 | 19.0 | 0.00 | 0.00 | 0.00 | 99 | 1024.8 |
| 20260902230346 | 67 | 35 | 9.0 | 10.0 | 0.00 | 0.00 | 0.00 | 99 | 1025.0 |
| 20260902225839 | 67 | 35 | 9.0 | 10.0 | 0.00 | 0.00 | 0.00 | 99 | 1025.0 |
| 20260902225335 | 68 | 146 | 15.0 | 17.0 | 0.00 | 0.00 | 0.00 | 99 | 1024.7 |
| 20260902224833 | 68 | 146 | 15.0 | 17.0 | 0.00 | 0.00 | 0.00 | 99 | 1024.7 |
| 20260902224328 | 72 | 43 | 18.0 | 23.0 | 0.00 | 0.00 | 0.00 | 99 | 1024.6 |
| 20260902223825 | 72 | 43 | 18.0 | 23.0 | 0.00 | 0.00 | 0.00 | 99 | 1024.6 |
| 20260902223319 | 69 | 141 | 16.0 | 17.0 | 0.00 | 0.00 | 0.00 | 99 | 1024.2 |
| 20260902222819 | 69 | 141 | 16.0 | 17.0 | 0.00 | 0.00 | 0.00 | 99 | 1024.2 |
| 20260902222318 | 69 | 166 | 17.0 | 22.0 | 0.00 | 0.00 | 0.00 | 99 | 1024.1 |
| 20260902221812 | 69 | 166 | 17.0 | 22.0 | 0.00 | 0.00 | 0.00 | 99 | 1024.1 |
| 20260902221312 | 70 | 148 | 17.0 | 21.0 | 0.00 | 0.00 | 0.00 | 99 | 1023.9 |
| 20260902220807 | 70 | 148 | 17.0 | 21.0 | 0.00 | 0.00 | 0.00 | 99 | 1023.9 |
| 20260902220307 | 74 | 4 | 7.0 | 8.0 | 0.00 | 0.00 | 0.00 | 99 | 1023.6 |
| 20260902215802 | 74 | 4 | 7.0 | 8.0 | 0.00 | 0.00 | 0.00 | 99 | 1023.6 |
| 20260902215257 | 77 | 329 | 9.0 | 10.0 | 0.00 | 0.00 | 0.00 | 99 | 1023.3 |
| 20260902214753 | 77 | 329 | 9.0 | 10.0 | 0.00 | 0.00 | 0.00 | 99 | 1023.3 |
| 20260902214252 | 79 | 1 | 5.0 | 7.0 | 0.00 | 0.00 | 0.00 | 99 | 1023.3 |
| 20260902213749 | 79 | 1 | 5.0 | 7.0 | 0.00 | 0.00 | 0.00 | 99 | 1023.3 |
| 20260902213248 | 76 | 85 | 10.0 | 13.0 | 0.00 | 0.00 | 0.00 | 99 | 1023.4 |
| 20260902212747 | 76 | 85 | 10.0 | 13.0 | 0.00 | 0.00 | 0.00 | 99 | 1023.4 |
| 20260902212244 | 78 | 53 | 9.0 | 14.0 | 0.00 | 0.00 | 0.00 | 99 | 1023.6 |
| 20260902211739 | 78 | 53 | 9.0 | 14.0 | 0.00 | 0.00 | 0.00 | 99 | 1023.6 |
| 20260902211235 | 79 | 9 | 9.0 | 11.0 | 0.00 | 0.00 | 0.00 | 99 | 1023.6 |
| 20260902210729 | 79 | 9 | 9.0 | 11.0 | 0.00 | 0.00 | 0.00 | 99 | 1023.6 |
| 20260902210225 | 78 | 171 | 3.0 | 6.0 | 0.00 | 0.00 | 0.00 | 99 | 1023.7 |
| 20260902205722 | 78 | 171 | 3.0 | 6.0 | 0.00 | 0.00 | 0.00 | 99 | 1023.7 |
| 20260902205218 | 77 | 1 | 4.0 | 4.0 | 0.00 | 0.00 | 0.00 | 99 | 1023.9 |
| 20260902204713 | 77 | 1 | 4.0 | 4.0 | 0.00 | 0.00 | 0.00 | 99 | 1023.9 |
| 20260902204209 | 78 | 69 | 7.0 | 9.0 | 0.00 | 0.00 | 0.00 | 99 | 1024.1 |
| 20260902203703 | 78 | 69 | 7.0 | 9.0 | 0.00 | 0.00 | 0.00 | 99 | 1024.1 |
| 20260902203158 | 80 | 7 | 6.0 | 9.0 | 0.00 | 0.00 | 0.00 | 99 | 1023.9 |
| 20260902202653 | 80 | 7 | 6.0 | 9.0 | 0.00 | 0.00 | 0.00 | 99 | 1023.9 |
| 20260902202150 | 80 | 7 | 9.0 | 10.0 | 0.00 | 0.00 | 0.00 | 99 | 1024.3 |
| 20260902201646 | 80 | 7 | 9.0 | 10.0 | 0.00 | 0.00 | 0.00 | 99 | 1024.3 |
| 20260902201145 | 79 | 194 | 3.0 | 4.0 | 0.00 | 0.00 | 0.00 | 99 | 1024.1 |
| 20260902200645 | 79 | 194 | 3.0 | 4.0 | 0.00 | 0.00 | 0.00 | 99 | 1024.1 |
| 20260902200141 | 79 | 131 | 8.0 | 13.0 | 0.00 | 0.00 | 0.00 | 99 | 1024.1 |
| 20260902195636 | 79 | 131 | 8.0 | 13.0 | 0.00 | 0.00 | 0.00 | 99 | 1024.1 |
| 20260902195136 | 79 | 25 | 6.0 | 10.0 | 0.00 | 0.00 | 0.00 | 99 | 1024.5 |
| 20260902194635 | 79 | 25 | 6.0 | 10.0 | 0.00 | 0.00 | 0.00 | 99 | 1024.5 |
| 20260902194131 | 78 | 78 | 12.0 | 17.0 | 0.00 | 0.00 | 0.00 | 99 | 1024.6 |
| 20260902193627 | 78 | 78 | 12.0 | 17.0 | 0.00 | 0.00 | 0.00 | 99 | 1024.6 |
| 20260902193126 | 77 | 118 | 11.0 | 14.0 | 0.00 | 0.00 | 0.00 | 99 | 1024.2 |
| 20260902192625 | 77 | 118 | 11.0 | 14.0 | 0.00 | 0.00 | 0.00 | 99 | 1024.2 |
| 20260902192124 | 75 | 74 | 14.0 | 17.0 | 0.00 | 0.00 | 0.00 | 99 | 1024.6 |
| 20260902191619 | 75 | 74 | 14.0 | 17.0 | 0.00 | 0.00 | 0.00 | 99 | 1024.6 |
| 20260902191113 | 73 | 28 | 8.0 | 11.0 | 0.00 | 0.00 | 0.00 | 99 | 1024.8 |
| 20260902190609 | 73 | 28 | 8.0 | 11.0 | 0.00 | 0.00 | 0.00 | 99 | 1024.8 |
| 20260902190104 | 73 | 51 | 11.0 | 14.0 | 0.00 | 0.00 | 0.00 | 99 | 1025.0 |
| 20260902185600 | 73 | 51 | 11.0 | 14.0 | 0.00 | 0.00 | 0.00 | 99 | 1025.0 |
| 20260902185055 | 74 | 51 | 20.0 | 25.0 | 0.00 | 0.00 | 0.00 | 99 | 1025.0 |
| 20260902184550 | 74 | 51 | 20.0 | 25.0 | 0.00 | 0.00 | 0.00 | 99 | 1025.0 |
| 20260902184045 | 77 | 295 | 6.0 | 8.0 | 0.00 | 0.00 | 0.00 | 99 | 1025.1 |
| 20260902183542 | 77 | 295 | 6.0 | 8.0 | 0.00 | 0.00 | 0.00 | 99 | 1025.1 |
| 20260902183038 | 75 | 0 | 6.0 | 9.0 | 0.00 | 0.00 | 0.00 | 99 | 1025.5 |
| 20260902182534 | 75 | 0 | 6.0 | 9.0 | 0.00 | 0.00 | 0.00 | 99 | 1025.5 |
| 20260902182030 | 75 | 40 | 8.0 | 9.0 | 0.00 | 0.00 | 0.00 | 99 | 1025.5 |
| 20260902181526 | 75 | 40 | 8.0 | 9.0 | 0.00 | 0.00 | 0.00 | 99 | 1025.5 |
| 20260902181020 | 76 | 85 | 10.0 | 16.0 | 0.00 | 0.00 | 0.00 | 99 | 1025.3 |
| 20260902180514 | 76 | 85 | 10.0 | 16.0 | 0.00 | 0.00 | 0.00 | 99 | 1025.3 |
| 20260902180010 | 76 | 9 | 8.0 | 13.0 | 0.00 | 0.00 | 0.00 | 99 | 1025.8 |
| 20260902175505 | 76 | 9 | 8.0 | 13.0 | 0.00 | 0.00 | 0.00 | 99 | 1025.8 |
| 20260902175001 | 76 | 169 | 8.0 | 11.0 | 0.00 | 0.00 | 0.00 | 99 | 1025.8 |
| 20260902174457 | 76 | 169 | 8.0 | 11.0 | 0.00 | 0.00 | 0.00 | 99 | 1025.8 |
| 20260902173952 | 73 | 83 | 12.0 | 13.0 | 0.00 | 0.00 | 0.00 | 99 | 1025.8 |
| 20260902173452 | 73 | 83 | 12.0 | 13.0 | 0.00 | 0.00 | 0.00 | 99 | 1025.8 |
| 20260902172947 | 74 | 183 | 6.0 | 11.0 | 0.00 | 0.00 | 0.00 | 99 | 1026.1 |
| 20260902172446 | 74 | 183 | 6.0 | 11.0 | 0.00 | 0.00 | 0.00 | 99 | 1026.1 |
| 20260902171942 | 72 | 58 | 10.0 | 15.0 | 0.00 | 0.00 | 0.00 | 99 | 1026.2 |
| 20260902171437 | 72 | 58 | 10.0 | 15.0 | 0.00 | 0.00 | 0.00 | 99 | 1026.2 |
| 20260902170933 | 71 | 61 | 12.0 | 18.0 | 0.00 | 0.00 | 0.00 | 99 | 1025.7 |
| 20260902170428 | 71 | 61 | 12.0 | 18.0 | 0.00 | 0.00 | 0.00 | 99 | 1025.7 |
| 20260902165924 | 72 | 57 | 16.0 | 21.0 | 0.00 | 0.00 | 0.00 | 99 | 1025.7 |
| 20260902165422 | 72 | 57 | 16.0 | 21.0 | 0.00 | 0.00 | 0.00 | 99 | 1025.7 |
| 20260902164917 | 74 | 69 | 10.0 | 14.0 | 0.00 | 0.00 | 0.00 | 99 | 1026.0 |
| 20260902164412 | 74 | 69 | 10.0 | 14.0 | 0.00 | 0.00 | 0.00 | 99 | 1026.0 |
| 20260902163911 | 72 | 77 | 15.0 | 19.0 | 0.00 | 0.00 | 0.00 | 99 | 1026.1 |
| 20260902163407 | 72 | 77 | 15.0 | 19.0 | 0.00 | 0.00 | 0.00 | 99 | 1026.1 |
| 20260902162904 | 74 | 43 | 4.0 | 8.0 | 0.00 | 0.00 | 0.00 | 99 | 1026.1 |
| 20260902162400 | 74 | 43 | 4.0 | 8.0 | 0.00 | 0.00 | 0.00 | 99 | 1026.1 |
| 20260902161900 | 73 | 356 | 5.0 | 9.0 | 0.00 | 0.00 | 0.00 | 99 | 1026.1 |
| 20260902161355 | 73 | 356 | 5.0 | 9.0 | 0.00 | 0.00 | 0.00 | 99 | 1026.1 |
| 20260902160851 | 74 | 160 | 8.0 | 13.0 | 0.00 | 0.00 | 0.00 | 99 | 1025.7 |
| 20260902160346 | 74 | 160 | 8.0 | 13.0 | 0.00 | 0.00 | 0.00 | 99 | 1025.7 |
| 20260902155844 | 73 | 42 | 3.0 | 6.0 | 0.00 | 0.00 | 0.00 | 99 | 1026.2 |
| 20260902155343 | 73 | 42 | 3.0 | 6.0 | 0.00 | 0.00 | 0.00 | 99 | 1026.2 |
| 20260902154838 | 70 | 209 | 4.0 | 6.0 | 0.00 | 0.00 | 0.00 | 99 | 1026.1 |
| 20260902154334 | 70 | 209 | 4.0 | 6.0 | 0.00 | 0.00 | 0.00 | 99 | 1026.1 |
| 20260902153833 | 70 | 74 | 7.0 | 9.0 | 0.00 | 0.00 | 0.00 | 99 | 1025.8 |
| 20260902153332 | 69 | 334 | 3.0 | 4.0 | 0.00 | 0.00 | 0.00 | 99 | 1026.2 |
| 20260902152828 | 69 | 334 | 3.0 | 4.0 | 0.00 | 0.00 | 0.00 | 99 | 1026.2 |
| 20260902152324 | 69 | 291 | 4.0 | 6.0 | 0.00 | 0.00 | 0.00 | 99 | 1026.0 |
| 20260902151819 | 69 | 291 | 4.0 | 6.0 | 0.00 | 0.00 | 0.00 | 99 | 1026.0 |
| 20260902151315 | 69 | 96 | 1.0 | 1.0 | 0.00 | 0.00 | 0.00 | 99 | 1026.1 |
| 20260902150809 | 69 | 96 | 1.0 | 1.0 | 0.00 | 0.00 | 0.00 | 99 | 1026.1 |
| 20260902150306 | 69 | 135 | 1.0 | 1.0 | 0.00 | 0.00 | 0.00 | 99 | 1026.0 |
| 20260902145805 | 69 | 135 | 1.0 | 1.0 | 0.00 | 0.00 | 0.00 | 99 | 1026.0 |
| 20260902145300 | 68 | 278 | 4.0 | 4.0 | 0.00 | 0.00 | 0.00 | 99 | 1025.7 |
| 20260902144755 | 68 | 278 | 4.0 | 4.0 | 0.00 | 0.00 | 0.00 | 99 | 1025.7 |
| 20260902144251 | 70 | 150 | 0.0 | 0.0 | 0.00 | 0.00 | 0.00 | 99 | 1025.8 |
| 20260902143746 | 70 | 150 | 0.0 | 0.0 | 0.00 | 0.00 | 0.00 | 99 | 1025.8 |
| 20260902143241 | 68 | 82 | 2.0 | 2.0 | 0.00 | 0.00 | 0.00 | 99 | 1025.7 |
| 20260902142736 | 68 | 82 | 2.0 | 2.0 | 0.00 | 0.00 | 0.00 | 99 | 1025.7 |
| 20260902142227 | 68 | 118 | 1.0 | 1.0 | 0.00 | 0.00 | 0.00 | 99 | 1025.8 |
| 20260902141726 | 68 | 118 | 1.0 | 1.0 | 0.00 | 0.00 | 0.00 | 99 | 1025.8 |
| 20260902141223 | 64 | 153 | 0.0 | 0.0 | 0.00 | 0.00 | 0.00 | 99 | 1026.0 |
| 20260902140712 | 64 | 153 | 0.0 | 0.0 | 0.00 | 0.00 | 0.00 | 99 | 1026.0 |
| 20260902140213 | 63 | 146 | 1.0 | 1.0 | 0.00 | 0.00 | 0.00 | 99 | 1026.0 |
| 20260902135712 | 63 | 146 | 1.0 | 1.0 | 0.00 | 0.00 | 0.00 | 99 | 1026.0 |
| 20260902135208 | 61 | 79 | 3.0 | 4.0 | 0.00 | 0.00 | 0.00 | 99 | 1026.1 |
| 20260902134707 | 61 | 79 | 3.0 | 4.0 | 0.00 | 0.00 | 0.00 | 99 | 1026.1 |
| 20260902134203 | 60 | 248 | 4.0 | 6.0 | 0.00 | 0.00 | 0.00 | 99 | 1025.6 |
| 20260902133657 | 60 | 248 | 4.0 | 6.0 | 0.00 | 0.00 | 0.00 | 99 | 1025.6 |
| 20260902133156 | 62 | 340 | 4.0 | 4.0 | 0.00 | 0.00 | 0.00 | 99 | 1025.6 |
| 20260902132653 | 62 | 340 | 4.0 | 4.0 | 0.00 | 0.00 | 0.00 | 99 | 1025.6 |
| 20260902132148 | 62 | 166 | 7.0 | 8.0 | 0.00 | 0.00 | 0.00 | 99 | 1025.6 |
| 20260902131643 | 62 | 166 | 7.0 | 8.0 | 0.00 | 0.00 | 0.00 | 99 | 1025.6 |
| 20260902131138 | 62 | 137 | 8.0 | 10.0 | 0.00 | 0.00 | 0.00 | 99 | 1025.6 |
| 20260902130634 | 62 | 137 | 8.0 | 10.0 | 0.00 | 0.00 | 0.00 | 99 | 1025.6 |
| 20260902130129 | 62 | 163 | 10.0 | 11.0 | 0.00 | 0.00 | 0.00 | 99 | 1025.7 |
| 20260902125625 | 62 | 163 | 10.0 | 11.0 | 0.00 | 0.00 | 0.00 | 99 | 1025.7 |
| 20260902125120 | 61 | 159 | 7.0 | 8.0 | 0.00 | 0.00 | 0.00 | 99 | 1025.7 |
| 20260902124617 | 61 | 159 | 7.0 | 8.0 | 0.00 | 0.00 | 0.00 | 99 | 1025.7 |
| 20260902124117 | 60 | 136 | 7.0 | 8.0 | 0.00 | 0.00 | 0.00 | 99 | 1025.6 |
| 20260902123613 | 60 | 136 | 7.0 | 8.0 | 0.00 | 0.00 | 0.00 | 99 | 1025.6 |
| 20260902123108 | 59 | 147 | 8.0 | 9.0 | 0.00 | 0.00 | 0.00 | 99 | 1025.8 |
| 20260902122607 | 59 | 147 | 8.0 | 9.0 | 0.00 | 0.00 | 0.00 | 99 | 1025.8 |
| 20260902122103 | 60 | 148 | 6.0 | 7.0 | 0.00 | 0.00 | 0.00 | 99 | 1025.6 |
| 20260902121602 | 60 | 148 | 6.0 | 7.0 | 0.00 | 0.00 | 0.00 | 99 | 1025.6 |
| 20260902121057 | 59 | 121 | 3.0 | 3.0 | 0.00 | 0.00 | 0.00 | 99 | 1025.8 |
| 20260902120553 | 59 | 121 | 3.0 | 3.0 | 0.00 | 0.00 | 0.00 | 99 | 1025.8 |
| 20260902120049 | 60 | 183 | 1.0 | 2.0 | 0.00 | 0.00 | 0.00 | 99 | 1025.8 |
| 20260902115544 | 60 | 183 | 1.0 | 2.0 | 0.00 | 0.00 | 0.00 | 99 | 1025.8 |
| 20260902115041 | 60 | 145 | 0.0 | 0.0 | 0.00 | 0.00 | 0.00 | 99 | 1025.8 |
| 20260902114536 | 60 | 145 | 0.0 | 0.0 | 0.00 | 0.00 | 0.00 | 99 | 1025.8 |
| 20260902114030 | 61 | 164 | 1.0 | 1.0 | 0.00 | 0.00 | 0.00 | 99 | 1025.7 |
| 20260902113526 | 61 | 164 | 1.0 | 1.0 | 0.00 | 0.00 | 0.00 | 99 | 1025.7 |
| 20260902113021 | 60 | 132 | 0.0 | 0.0 | 0.00 | 0.00 | 0.00 | 99 | 1025.8 |
| 20260902112516 | 60 | 132 | 0.0 | 0.0 | 0.00 | 0.00 | 0.00 | 99 | 1025.8 |
| 20260902112013 | 61 | 125 | 0.0 | 1.0 | 0.00 | 0.00 | 0.00 | 99 | 1025.7 |
| 20260902111509 | 61 | 125 | 0.0 | 1.0 | 0.00 | 0.00 | 0.00 | 99 | 1025.7 |
| 20260902111004 | 60 | 145 | 2.0 | 3.0 | 0.00 | 0.00 | 0.00 | 99 | 1025.5 |
| 20260902110500 | 60 | 145 | 2.0 | 3.0 | 0.00 | 0.00 | 0.00 | 99 | 1025.5 |
| 20260902105955 | 62 | 112 | 5.0 | 7.0 | 0.00 | 0.00 | 0.00 | 99 | 1025.7 |
| 20260902105450 | 62 | 112 | 5.0 | 7.0 | 0.00 | 0.00 | 0.00 | 99 | 1025.7 |
| 20260902104944 | 64 | 33 | 11.0 | 13.0 | 0.00 | 0.00 | 0.00 | 99 | 1025.5 |
| 20260902104440 | 64 | 33 | 11.0 | 13.0 | 0.00 | 0.00 | 0.00 | 99 | 1025.5 |
| 20260902103934 | 64 | 47 | 11.0 | 14.0 | 0.00 | 0.00 | 0.00 | 99 | 1025.5 |
| 20260902103430 | 64 | 47 | 11.0 | 14.0 | 0.00 | 0.00 | 0.00 | 99 | 1025.5 |
| 20260902102925 | 62 | 77 | 10.0 | 13.0 | 0.00 | 0.00 | 0.00 | 99 | 1025.6 |
| 20260902102422 | 62 | 77 | 10.0 | 13.0 | 0.00 | 0.00 | 0.00 | 99 | 1025.6 |
| 20260902101918 | 59 | 84 | 11.0 | 14.0 | 0.00 | 0.00 | 0.00 | 99 | 1025.7 |
| 20260902101412 | 59 | 84 | 11.0 | 14.0 | 0.00 | 0.00 | 0.00 | 99 | 1025.7 |
| 20260902100911 | 57 | 135 | 10.0 | 11.0 | 0.00 | 0.00 | 0.00 | 99 | 1025.7 |
| 20260902100406 | 57 | 135 | 10.0 | 11.0 | 0.00 | 0.00 | 0.00 | 99 | 1025.7 |
| 20260902095901 | 58 | 90 | 12.0 | 14.0 | 0.00 | 0.00 | 0.00 | 99 | 1025.6 |
| 20260902095401 | 58 | 90 | 12.0 | 14.0 | 0.00 | 0.00 | 0.00 | 99 | 1025.6 |
| 20260902094855 | 59 | 103 | 12.0 | 14.0 | 0.00 | 0.00 | 0.00 | 99 | 1025.7 |
| 20260902094351 | 59 | 103 | 12.0 | 14.0 | 0.00 | 0.00 | 0.00 | 99 | 1025.7 |
| 20260902093850 | 59 | 103 | 9.0 | 10.0 | 0.00 | 0.00 | 0.00 | 99 | 1025.6 |
| 20260902093346 | 59 | 103 | 9.0 | 10.0 | 0.00 | 0.00 | 0.00 | 99 | 1025.6 |
| 20260902092844 | 60 | 76 | 11.0 | 13.0 | 0.00 | 0.00 | 0.00 | 99 | 1025.7 |
| 20260902092340 | 60 | 76 | 11.0 | 13.0 | 0.00 | 0.00 | 0.00 | 99 | 1025.7 |
| 20260902091835 | 60 | 98 | 11.0 | 11.0 | 0.00 | 0.00 | 0.00 | 99 | 1025.8 |
| 20260902091330 | 60 | 98 | 11.0 | 11.0 | 0.00 | 0.00 | 0.00 | 99 | 1025.8 |
| 20260902090827 | 59 | 87 | 11.0 | 13.0 | 0.00 | 0.00 | 0.00 | 99 | 1025.7 |
| 20260902090326 | 59 | 87 | 11.0 | 13.0 | 0.00 | 0.00 | 0.00 | 99 | 1025.7 |
| 20260902085825 | 59 | 106 | 12.0 | 14.0 | 0.00 | 0.00 | 0.00 | 99 | 1025.6 |
| 20260902085321 | 59 | 106 | 12.0 | 14.0 | 0.00 | 0.00 | 0.00 | 99 | 1025.6 |
| 20260902084816 | 59 | 106 | 11.0 | 13.0 | 0.00 | 0.00 | 0.00 | 99 | 1025.7 |
| 20260902084313 | 59 | 106 | 11.0 | 13.0 | 0.00 | 0.00 | 0.00 | 99 | 1025.7 |
| 20260902083807 | 58 | 107 | 9.0 | 10.0 | 0.00 | 0.00 | 0.00 | 99 | 1025.8 |
| 20260902083302 | 58 | 107 | 9.0 | 10.0 | 0.00 | 0.00 | 0.00 | 99 | 1025.8 |
| 20260902082802 | 57 | 114 | 11.0 | 13.0 | 0.00 | 0.00 | 0.00 | 99 | 1026.0 |
| 20260902082259 | 57 | 114 | 11.0 | 13.0 | 0.00 | 0.00 | 0.00 | 99 | 1026.0 |
| 20260902081754 | 56 | 93 | 1.0 | 2.0 | 0.00 | 0.00 | 0.00 | 99 | 1026.0 |
| 20260902081250 | 56 | 93 | 1.0 | 2.0 | 0.00 | 0.00 | 0.00 | 99 | 1026.0 |
| 20260902080745 | 56 | 169 | 3.0 | 3.0 | 0.00 | 0.00 | 0.00 | 99 | 1026.1 |
| 20260902080242 | 56 | 154 | 3.0 | 4.0 | 0.00 | 0.00 | 0.00 | 99 | 1026.0 |
| 20260902075741 | 56 | 154 | 3.0 | 4.0 | 0.00 | 0.00 | 0.00 | 99 | 1026.0 |
| 20260902075238 | 56 | 126 | 0.0 | 0.0 | 0.00 | 0.00 | 0.00 | 99 | 1026.2 |
| 20260902074737 | 56 | 126 | 0.0 | 0.0 | 0.00 | 0.00 | 0.00 | 99 | 1026.2 |
| 20260902074233 | 57 | 139 | 0.0 | 0.0 | 0.00 | 0.00 | 0.00 | 99 | 1026.2 |
| 20260902073728 | 57 | 139 | 0.0 | 0.0 | 0.00 | 0.00 | 0.00 | 99 | 1026.2 |
| 20260902073224 | 57 | 174 | 1.0 | 2.0 | 0.00 | 0.00 | 0.00 | 99 | 1025.8 |
| 20260902072721 | 57 | 174 | 1.0 | 2.0 | 0.00 | 0.00 | 0.00 | 99 | 1025.8 |
| 20260902072216 | 57 | 149 | 1.0 | 2.0 | 0.00 | 0.00 | 0.00 | 99 | 1026.1 |
| 20260902071712 | 57 | 149 | 1.0 | 2.0 | 0.00 | 0.00 | 0.00 | 99 | 1026.1 |
| 20260902071208 | 58 | 124 | 3.0 | 3.0 | 0.00 | 0.00 | 0.00 | 99 | 1026.2 |
| 20260902070704 | 58 | 124 | 3.0 | 3.0 | 0.00 | 0.00 | 0.00 | 99 | 1026.2 |
| 20260902070203 | 59 | 149 | 5.0 | 7.0 | 0.00 | 0.00 | 0.00 | 99 | 1025.8 |
| 20260902065701 | 59 | 149 | 5.0 | 7.0 | 0.00 | 0.00 | 0.00 | 99 | 1025.8 |
| 20260902065157 | 59 | 114 | 6.0 | 8.0 | 0.00 | 0.00 | 0.00 | 99 | 1026.0 |
| 20260902064652 | 59 | 114 | 6.0 | 8.0 | 0.00 | 0.00 | 0.00 | 99 | 1026.0 |
| 20260902064148 | 60 | 100 | 11.0 | 13.0 | 0.00 | 0.00 | 0.00 | 99 | 1025.8 |
| 20260902063644 | 60 | 100 | 11.0 | 13.0 | 0.00 | 0.00 | 0.00 | 99 | 1025.8 |
| 20260902063143 | 59 | 111 | 7.0 | 8.0 | 0.00 | 0.00 | 0.00 | 99 | 1026.0 |
| 20260902062638 | 59 | 111 | 7.0 | 8.0 | 0.00 | 0.00 | 0.00 | 99 | 1026.0 |
| 20260902062133 | 60 | 100 | 9.0 | 10.0 | 0.00 | 0.00 | 0.00 | 99 | 1026.0 |
| 20260902061632 | 60 | 100 | 9.0 | 10.0 | 0.00 | 0.00 | 0.00 | 99 | 1026.0 |
| 20260902061128 | 60 | 104 | 10.0 | 11.0 | 0.00 | 0.00 | 0.00 | 99 | 1026.0 |